THORAD AGENA D DEB, 6167

Orbit data source: Space-Track

THORAD AGENA D DEB, 6167 is space debris in SSO originally from a launch on Wed, 08 Apr 1970 UTC launched from the Air Force Western Test Range (AFWTR). Debris objects in space refer to the collection of defunct objects orbiting the Earth. Examples of debris include non-operational satellites, rocket bodies, and fragments generated from explosions, collisions, or faulty payload assembly.

Loading next visibility...
Identifier
6167, 1970-025NB
Orbit
SSO
Country
Flag of USUS
Related business
Manufacturer
Unknown
Mission
Spacecraft
Bus & Motor
Unknown
Mass
Unknown
Launch date (UTC)
1970-04-08 (56 years ago)
Launch vehicle
Unknown
Launch site
Air Force Western Test Range (AFWTR)
Object type
Payload
Rocket body
Debris
Shape & HBR
Unknown shape, 0.1 m
Radar Cross Section
Small (<0.1 m²)

Expand to show TLE details & history
Last TLE update: 12 hours ago

TLE from 12 hours ago
0 THORAD AGENA D DEB
1 06167U 70025NB  25351.59620677  .00000466  00000-0  59440-3 0  9993
2 06167 100.1264 357.1858 0032001  65.4383  52.8929 13.68906956770516
Epoch: 2025-12-17T14:18Z
TLE epoch observation values (Epoch: 2025-12-17T14:18:32.264Z)
Latitude
59.87657°
Longitude
-106.08092°
Altitude
999.374 km
Speed
7.365 km/s
True Right ascension
13h 00m 04s
True Declination
59° 43' 55"
Sunlit
Object was in daylight at epoch
Visualization orbit readout
Latitude
Unknown
Longitude
Unknown
Altitude
Unknown
Speed
Unknown
Apparent Right ascension
Unknown
Apparent Declination
Unknown
Sunlit
N/A
Visualization observer readout
Local Sidereal Time
01:11:32
Azimuth
Unknown
Elevation
Unknown
Doppler factor
Unknown
Orbital elements
Apogee altitude
1,024.41 km
Perigee altitude
977.183 km
Semi-major axis
7,378.933 km
Eccentricity
0.0032
Inclination
100.1264°
RAAN
357.1858°
Arg. of periapsis
65.4383°
True anomaly
53.18606°
Mean anomaly
52.8929°
Eccentric anomaly
53.03941°
Mean motion
3.42415 °/min
Orbital period
105.14 mins
BSTAR
0.0005944

Documentation

Showing up to 5 results
|